Tracking 35237 objects as of 5-Sep-2026
HD Live streaming from Space Station
objects crossing your sky now

STARLINK-3795

Track STARLINK-3795 now!
10-day predictions
STARLINK-3795 is classified as:


NORAD ID: 52264
Int'l Code: 2022-041D
Launch date: April 21, 2022
Source: United States (US)
Launch site: AIR FORCE EASTERN TEST RANGE (AFETR)
Your satellite tracking list
Your tracking list is empty




NASA's NSSDC Master Catalog

Two Line Element Set (TLE):
1 52264U 22041D   26247.64405400 -.00001437  00000-0 -31409-4 0  9990
2 52264  53.1619  12.0926 0001376  90.9185 269.1975 15.34378230241568
Source of the keplerian elements: AFSPC